When you browse on this site, cookies collect data to enhance your experience and personalize the content and advertising you see.
Visit our Privacy Policy to learn more. By continuing to use the site, you agree to this use of cookies and data.
  • In Österreich
  • Länderverzeichnis
  • Für 7 Tage
  • Wassertemperatur
  • Wetterkarte
  • News
  • Widgets
  • user-avatar
    Anmelden

    Stündliche Wetter Vinh

    Heute, 18 Januar, Samstag

    Zeit Temperatur Niederschläge Wind Luftdruck Luftfeuchtigkeit
    00:00 +22°C° 0.1 mm 1 m/S 751 mmHg 96%
    01:00 +22°C° 0 mm 1 m/S 750 mmHg 97%
    02:00 +22°C° 0.1 mm 1 m/S 750 mmHg 97%
    03:00 +20°C° 0.1 mm 0 m/S 750 mmHg 97%
    04:00 +20°C° 0.1 mm 0 m/S 749 mmHg 97%
    05:00 +19°C° 0.1 mm 0 m/S 750 mmHg 96%
    06:00 +19°C° 0.1 mm 0 m/S 750 mmHg 96%
    07:00 +20°C° 0 mm 0 m/S 750 mmHg 97%
    08:00 +23°C° 0.1 mm 1 m/S 750 mmHg 91%
    09:00 +24°C° 0.1 mm 1 m/S 751 mmHg 85%
    10:00 +26°C° 0.1 mm 1 m/S 751 mmHg 80%
    11:00 +26°C° 0.1 mm 1 m/S 750 mmHg 78%
    12:00 +26°C° 0.1 mm 1 m/S 750 mmHg 76%
    13:00 +27°C° 0.1 mm 2 m/S 749 mmHg 74%
    14:00 +27°C° 0.2 mm 2 m/S 748 mmHg 77%
    15:00 +26°C° 0.2 mm 2 m/S 748 mmHg 80%
    16:00 +26°C° 0.2 mm 2 m/S 747 mmHg 83%
    17:00 +25°C° 0.1 mm 2 m/S 748 mmHg 87%
    18:00 +24°C° 0.1 mm 1 m/S 748 mmHg 91%
    19:00 +23°C° 0.1 mm 1 m/S 748 mmHg 95%
    20:00 +23°C° 0 mm 1 m/S 749 mmHg 96%
    21:00 +23°C° 0 mm 1 m/S 749 mmHg 96%
    22:00 +20°C° 0 mm 0 m/S 750 mmHg 96%
    23:00 +20°C° 0 mm 0 m/S 750 mmHg 96%

    Morgen, 19 Januar, Sonntag

    Zeit Temperatur Niederschläge Wind Luftdruck Luftfeuchtigkeit
    00:00 +20°C° 0 mm 0 m/S 749 mmHg 96%
    01:00 +19°C° 0 mm 0 m/S 749 mmHg 96%
    02:00 +19°C° 0 mm 0 m/S 749 mmHg 96%
    03:00 +19°C° 0 mm 0 m/S 749 mmHg 96%
    04:00 +19°C° 0 mm 0 m/S 749 mmHg 96%
    05:00 +19°C° 0 mm 0 m/S 750 mmHg 96%
    06:00 +19°C° 0 mm 0 m/S 750 mmHg 96%
    07:00 +19°C° 0 mm 0 m/S 751 mmHg 96%
    08:00 +22°C° 0.1 mm 1 m/S 751 mmHg 91%
    09:00 +24°C° 0.1 mm 1 m/S 751 mmHg 85%
    10:00 +25°C° 0.1 mm 1 m/S 752 mmHg 80%
    11:00 +25°C° 0.3 mm 2 m/S 751 mmHg 81%
    12:00 +25°C° 0.3 mm 2 m/S 750 mmHg 82%
    13:00 +25°C° 0.3 mm 3 m/S 750 mmHg 82%
    14:00 +25°C° 0.3 mm 2 m/S 749 mmHg 86%
    15:00 +24°C° 0.3 mm 2 m/S 749 mmHg 89%
    16:00 +23°C° 0.3 mm 2 m/S 749 mmHg 93%
    17:00 +23°C° 0.4 mm 2 m/S 749 mmHg 94%
    18:00 +23°C° 0.4 mm 1 m/S 750 mmHg 95%
    19:00 +22°C° 0.4 mm 1 m/S 750 mmHg 96%
    20:00 +22°C° 0.4 mm 1 m/S 750 mmHg 96%
    21:00 +22°C° 0.4 mm 1 m/S 751 mmHg 96%
    22:00 +22°C° 0.4 mm 1 m/S 751 mmHg 96%
    23:00 +22°C° 0.2 mm 1 m/S 751 mmHg 96%

    übermorgen, 20 Januar, Montag

    Zeit Temperatur Niederschläge Wind Luftdruck Luftfeuchtigkeit
    00:00 +22°C° 0.2 mm 1 m/S 751 mmHg 96%
    01:00 +21°C° 0.2 mm 1 m/S 750 mmHg 96%
    02:00 +21°C° 0 mm 1 m/S 750 mmHg 97%
    03:00 +21°C° 0 mm 1 m/S 750 mmHg 97%
    04:00 +21°C° 0 mm 1 m/S 750 mmHg 97%
    05:00 +21°C° 0 mm 1 m/S 750 mmHg 97%
    06:00 +21°C° 0 mm 1 m/S 751 mmHg 97%
    07:00 +20°C° 0 mm 1 m/S 751 mmHg 97%
    08:00 +21°C° 0 mm 1 m/S 752 mmHg 94%
    09:00 +22°C° 0 mm 1 m/S 752 mmHg 91%
    10:00 +23°C° 0 mm 1 m/S 753 mmHg 88%
    11:00 +24°C° 0.1 mm 1 m/S 752 mmHg 84%
    12:00 +25°C° 0.1 mm 1 m/S 751 mmHg 80%
    13:00 +26°C° 0.1 mm 1 m/S 751 mmHg 76%
    14:00 +25°C° 0.1 mm 1 m/S 750 mmHg 79%
    15:00 +25°C° 0.1 mm 2 m/S 750 mmHg 81%
    16:00 +25°C° 0.1 mm 2 m/S 749 mmHg 84%
    17:00 +24°C° 0.1 mm 2 m/S 750 mmHg 87%
    18:00 +23°C° 0.1 mm 1 m/S 750 mmHg 90%
    19:00 +22°C° 0.1 mm 1 m/S 751 mmHg 94%
    20:00 +22°C° 0 mm 1 m/S 751 mmHg 94%
    21:00 +22°C° 0 mm 1 m/S 751 mmHg 94%
    22:00 +21°C° 0 mm 1 m/S 752 mmHg 95%
    23:00 +19°C° 0 mm 0 m/S 752 mmHg 95%

    21 Januar, Dienstag

    Zeit Temperatur Niederschläge Wind Luftdruck Luftfeuchtigkeit
    00:00 +19°C° 0 mm 0 m/S 751 mmHg 95%
    01:00 +19°C° 0 mm 0 m/S 751 mmHg 95%
    02:00 +19°C° 0 mm 0 m/S 751 mmHg 95%
    03:00 +19°C° 0 mm 0 m/S 750 mmHg 95%
    04:00 +19°C° 0 mm 0 m/S 750 mmHg 95%
    05:00 +19°C° 0 mm 0 m/S 750 mmHg 95%
    06:00 +19°C° 0 mm 0 m/S 751 mmHg 95%
    07:00 +19°C° 0 mm 0 m/S 751 mmHg 95%
    08:00 +20°C° 0 mm 0 m/S 752 mmHg 91%
    09:00 +21°C° 0 mm 0 m/S 752 mmHg 87%
    10:00 +22°C° 0 mm 0 m/S 753 mmHg 84%
    11:00 +25°C° 0 mm 1 m/S 752 mmHg 82%
    12:00 +25°C° 0 mm 1 m/S 751 mmHg 80%
    13:00 +26°C° 0 mm 1 m/S 750 mmHg 78%
    14:00 +26°C° 0 mm 1 m/S 750 mmHg 78%
    15:00 +26°C° 0 mm 1 m/S 749 mmHg 78%
    16:00 +26°C° 0 mm 2 m/S 748 mmHg 78%
    17:00 +25°C° 0 mm 1 m/S 749 mmHg 83%
    18:00 +24°C° 0 mm 1 m/S 749 mmHg 88%
    19:00 +23°C° 0 mm 1 m/S 750 mmHg 93%
    20:00 +23°C° 0 mm 1 m/S 750 mmHg 93%
    21:00 +22°C° 0 mm 1 m/S 750 mmHg 93%
    22:00 +20°C° 0 mm 0 m/S 751 mmHg 94%
    23:00 +20°C° 0 mm 0 m/S 750 mmHg 94%

    22 Januar, Mittwoch

    Zeit Temperatur Niederschläge Wind Luftdruck Luftfeuchtigkeit
    00:00 +19°C° 0 mm 0 m/S 750 mmHg 94%
    01:00 +19°C° 0 mm 0 m/S 750 mmHg 94%
    02:00 +19°C° 0 mm 0 m/S 749 mmHg 94%
    03:00 +19°C° 0 mm 0 m/S 749 mmHg 94%
    04:00 +19°C° 0 mm 0 m/S 749 mmHg 94%
    05:00 +19°C° 0 mm 0 m/S 749 mmHg 93%
    06:00 +19°C° 0 mm 0 m/S 749 mmHg 93%
    07:00 +19°C° 0 mm 0 m/S 749 mmHg 92%
    08:00 +21°C° 0 mm 0 m/S 750 mmHg 85%
    09:00 +25°C° 0 mm 1 m/S 750 mmHg 77%
    10:00 +27°C° 0 mm 1 m/S 750 mmHg 70%
    11:00 +28°C° 0 mm 1 m/S 749 mmHg 67%
    12:00 +29°C° 0 mm 1 m/S 748 mmHg 64%
    13:00 +30°C° 0 mm 2 m/S 747 mmHg 62%
    14:00 +30°C° 0 mm 2 m/S 747 mmHg 65%
    15:00 +29°C° 0 mm 2 m/S 746 mmHg 69%
    16:00 +28°C° 0 mm 2 m/S 745 mmHg 72%
    17:00 +27°C° 0 mm 1 m/S 746 mmHg 79%
    18:00 +25°C° 0 mm 1 m/S 746 mmHg 86%
    19:00 +22°C° 0 mm 0 m/S 746 mmHg 92%
    20:00 +22°C° 0 mm 0 m/S 747 mmHg 90%
    21:00 +21°C° 0 mm 0 m/S 747 mmHg 88%
    22:00 +21°C° 0 mm 0 m/S 747 mmHg 86%
    23:00 +21°C° 0 mm 0 m/S 747 mmHg 86%

    23 Januar, Donnerstag

    Zeit Temperatur Niederschläge Wind Luftdruck Luftfeuchtigkeit
    00:00 +21°C° 0 mm 0 m/S 747 mmHg 87%
    01:00 +20°C° 0 mm 0 m/S 746 mmHg 87%
    02:00 +20°C° 0 mm 0 m/S 746 mmHg 88%
    03:00 +20°C° 0 mm 0 m/S 746 mmHg 89%
    04:00 +20°C° 0 mm 0 m/S 746 mmHg 90%
    05:00 +20°C° 0 mm 0 m/S 746 mmHg 89%
    06:00 +20°C° 0 mm 0 m/S 747 mmHg 89%
    07:00 +23°C° 0 mm 1 m/S 747 mmHg 88%
    08:00 +25°C° 0 mm 1 m/S 747 mmHg 81%
    09:00 +27°C° 0 mm 1 m/S 748 mmHg 73%
    10:00 +29°C° 0 mm 1 m/S 748 mmHg 66%
    11:00 +30°C° 0 mm 1 m/S 747 mmHg 63%
    12:00 +31°C° 0 mm 2 m/S 746 mmHg 59%
    13:00 +32°C° 0 mm 2 m/S 746 mmHg 56%
    14:00 +31°C° 0 mm 2 m/S 745 mmHg 61%
    15:00 +31°C° 0 mm 2 m/S 745 mmHg 65%
    16:00 +30°C° 0 mm 2 m/S 744 mmHg 69%
    17:00 +28°C° 0.1 mm 1 m/S 744 mmHg 76%
    18:00 +27°C° 0.1 mm 1 m/S 745 mmHg 82%
    19:00 +23°C° 0.1 mm 0 m/S 745 mmHg 89%
    20:00 +23°C° 0 mm 0 m/S 745 mmHg 88%
    21:00 +22°C° 0 mm 0 m/S 746 mmHg 88%
    22:00 +22°C° 0 mm 0 m/S 746 mmHg 88%
    23:00 +22°C° 0 mm 0 m/S 746 mmHg 88%
    Mehr zeigen